Location: Newark
(42.9858°N, 0.6717°E)
Time: 07:59:20
(UTC+00:00)

S-56A Canister/Altair - Pass Details

Date: 27 November 2019
Orbit: 633 x 2499 km, 38.9° (Epoch: 06 December)

Event Time Altitude Azimuth Distance (km) Brightness Sun altitude
Rises 12:54:08 0° 217° (SW) 6,164 13.3 23.9°
Reaches altitude 10° 12:58:40 10° 210° (SSW) 5,103 13.5 23.7°
Maximum altitude 13:11:26 39° 150° (SSE) 2,915 11.2 22.9°
Drops below altitude 10° 13:21:21 10° 87° (E) 3,994 11.0 22.1°
Sets 13:24:24 0° 79° (E) 4,739 11.2 21.9°
